sat.trackr.live / text

‹ back to catalog

LEMUR-2-WILSON

NORAD 62694 · 2025-009CP

PAYLOAD ACTIVE UNKNOWN

§ Identity

Operator
Country
US
Launch date
2025-01-14
Launch site
AFWTR
Launch vehicle
Mass (kg)
RCS (m²)

Purposes: earth_obs

External: N2YO · Heavens-Above · Gunter

§ Orbital elements

Epoch: 2026-05-25T03:20:37.202208Z

Period
96.32 min
Inclination
97.7027°
Eccentricity
0.0004681
Mean motion
14.95045551 rev/d
Perigee alt
579.0 km
Apogee alt
585.5 km
Semi-major
6,960.4 km
B*
1.5745e-4
RAAN
224.0103°
Arg perigee
109.1459°
Mean anomaly
251.0268°
Rev number
7,391

§ Raw data

LEMUR-2-WILSON1 62694U 25009CP  26145.13931947  .00001667  00000+0  15745-3 0  99922 62694  97.7027 224.0103 0004681 109.1459 251.0268 14.95045551 73914

JSON: /api/v1/satellites/62694 · /tle

For live sub-satellite position, see the globe view (requires WebGL).

§ Visibility from observer

Set your observer location to see the next 7 days of passes ≥ 10°. The values pass through the URL so the page stays shareable.

No JS? Fill the form by hand. The geolocation button needs JavaScript.